Вернуться в каталог

STARLINK-32253

АктивенСвязьVLEO
NORAD 60733·PAYLOAD·🇺🇸 United States

Запущен Aug 28, 2024 с Cape Canaveral Space Force Station

Loading…

Ближайшие Пролёты (ближайшие 24 часа)

TLE

СвежийSource: CelesTrak SupGP

Эпоха: Sep 14, 2026, 22:24 UTC

1 60733C 24152P   26257.93381944 -.00002417  00000+0 -71421-4 0  2577
2 60733  53.1567 107.4315 0001219  85.2439 242.5484 15.34385702    11

Отслеживайте STARLINK-32253 в реальном времени с AllMySat

Download on the App Store